Regional Weather Roundup
Issued by NWS

Home | Current Version | Previous Version | Text Only | Print | Product List | Glossary On
Versions: 1 2 3 4 5 6 7 8 9 10 11 12 13 14 15 16 17 18 19 20 21 22 23 24 25 26 27 28 29 30 31 32 33 34 35 36 37 38 39 40 41 42 43 44 45 46 47 48 49 50
000
ASUS43 KTOP 291208
RWRKS

WEATHER ROUNDUP FOR KANSAS
NATIONAL WEATHER SERVICE GOODLAND KS
600 AM CST MON DEC 29 2014

NOTE:  "FAIR" INDICATES FEW OR NO CLOUDS BELOW 12,000 FEET WITH NO
SIGNIFICANT WEATHER AND/OR OBSTRUCTIONS TO VISIBILITY.

KSZ001>006-013>018-027>032-041>047-291300-
NORTHWEST KANSAS

CITY           SKY/WX    TMP DP  RH WIND       PRES   REMARKS
GOODLAND       FOG       18  17  96 NE9       30.05S VSB 3/4
6HR MIN TEMP:   9; 6HR MAX TEMP:  19;

HAYS           CLEAR     19   9  63 NE6       30.12R
HILL CITY      FAIR      18  15  88 N9        30.15R
6HR MIN TEMP:  14; 6HR MAX TEMP:  22;

RUSSELL        CLEAR     21  18  88 E6        30.13R
6HR MIN TEMP:  20; 6HR MAX TEMP:  27;

$$

KSZ061>065-074>080-084>089-291300-
SOUTHWEST KANSAS

CITY           SKY/WX    TMP DP  RH WIND       PRES   REMARKS
DODGE CITY     CLEAR     18  14  84 E3        30.06R
6HR MIN TEMP:  16; 6HR MAX TEMP:  23;

ELKHART          N/A     18  12  77 N6          N/A
GARDEN CITY    CLEAR     11   8  88 NE5       30.05R
6HR MIN TEMP:  10; 6HR MAX TEMP:  19;

GREAT BEND     PTCLDY    21  14  73 CALM      30.14R
LIBERAL        FAIR      16  10  79 N3        30.04R
PRATT          CLEAR     21  18  86 E6        30.11R
$$

KSZ066>073-081>083-090>101-291300-
SOUTHEAST KANSAS

CITY           SKY/WX    TMP DP  RH WIND       PRES   REMARKS
CHANUTE        CLEAR     23  20  88 E7        30.19R
6HR MIN TEMP:  19; 6HR MAX TEMP:  25;

COFFEYVILLE    CLEAR     22  20  92 NE3       30.19R
6HR MIN TEMP:  20; 6HR MAX TEMP:  24;

HUTCHINSON     CLEAR     20  15  81 E3        30.15S
6HR MIN TEMP:  20; 6HR MAX TEMP:  27;

MEDICINE LODGE   N/A     25  20  81 E10       30.11R WCI  15
NEWTON         CLEAR     19  10  68 E7        30.16S
PARSONS        CLEAR     24  22  91 E3        30.20R
6HR MIN TEMP:  19; 6HR MAX TEMP:  26;

WICHITA INTL   PTCLDY    23  16  74 E6        30.15S
6HR MIN TEMP:  22; 6HR MAX TEMP:  27;

WICHITA JABRA  CLEAR     19  16  88 NE5       30.16R
6HR MIN TEMP:  19; 6HR MAX TEMP:  24;

WICHITA MCCONL CLEAR     22  18  81 NE6       30.16R
WINFIELD       CLOUDY    25  21  85 NE6       30.16S
6HR MIN TEMP:  24; 6HR MAX TEMP:  27;

$$

KSZ007>012-019>026-033>040-048>060-102>105-291300-
NORTHEAST KANSAS

CITY           SKY/WX    TMP DP  RH WIND       PRES   REMARKS
CONCORDIA      FAIR      21  19  92 CALM      30.19R
6HR MIN TEMP:  20; 6HR MAX TEMP:  28;

EMPORIA        CLEAR     18  16  92 N3        30.19R
6HR MIN TEMP:  17; 6HR MAX TEMP:  26;

LAWRENCE       FAIR      16  13  88 N3        30.23R
6HR MIN TEMP:  16; 6HR MAX TEMP:  28;

MANHATTAN      CLEAR     19  16  88 CALM      30.21R
6HR MIN TEMP:  18; 6HR MAX TEMP:  27;

MARYSVILLE     CLOUDY    27  23  86 NE3       30.21R
OLATHE IND     CLEAR     23  18  81 E3        30.22R
6HR MIN TEMP:  20; 6HR MAX TEMP:  30; 6HR PCP: TRACE;

OLATHE EXE     CLEAR     24  20  84 CALM      30.20R
6HR MIN TEMP:  21; 6HR MAX TEMP:  29;

SALINA         PTCLDY    23  17  78 CALM      30.19R
6HR MIN TEMP:  22; 6HR MAX TEMP:  26;

TOPEKA BILLARD CLEAR     22  20  92 CALM      30.23R
6HR MIN TEMP:  20; 6HR MAX TEMP:  31;

TOPEKA FORBES  CLEAR     21  16  81 CALM      30.21R
6HR MIN TEMP:  20; 6HR MAX TEMP:  29;

$$


USA.gov is the U.S. government's official web portal to all federal, state and local government web resources and services.